Total_Precipitation_Accumulation
0.55 0.50 0.47 0.53 0.55 0.50 0.47 0.55 0.63 0.67 0.68 0.78 0.91 1.03 1.15 1.30 1.50 1.55 1.60 1.71 1.75 1.75 1.87 1.98 2.04 2.00 1.94 2.02 2.23 2.65 2.61 2.31 2.07 2.05 1.94 1.80 1.75 1.77 1.72 1.82 1.89 1.79 1.74
0.47 0.42 0.41 0.42 0.44 0.45 0.45 0.48 0.60 0.71 0.74 0.80 0.94 1.13 1.39 1.46 1.61 1.82 1.81 1.80 1.85 1.88 1.94 2.15 2.26 2.22 2.22 2.30 2.37 2.67 2.89 2.66 2.45 2.47 2.67 2.44 2.23 1.86 1.56 1.59 1.67 1.71 1.75
0.40 0.33 0.35 0.39 0.40 0.42 0.51 0.55 0.67 0.87 1.03 1.11 1.35 1.68 1.95 2.01 1.95 1.98 2.04 2.04 2.05 2.10 2.04 2.12 2.29 2.32 2.32 2.39 2.60 2.90 3.27 3.28 2.97 2.72 2.94 2.73 2.44 2.32 1.80 1.47 1.49 1.62 1.73
0.48 0.39 0.36 0.39 0.39 0.44 0.58 0.77 0.98 1.28 1.49 1.60 1.78 2.05 2.19 2.24 2.14 2.12 2.15 2.19 2.11 2.04 2.05 2.09 2.24 2.40 2.55 2.69 2.73 2.70 3.16 3.54 3.36 3.12 2.72 2.44 2.31 2.45 2.32 1.84 1.51 1.53 1.57
0.51 0.51 0.49 0.55 0.57 0.68 0.90 1.25 1.53 1.73 1.87 1.90 1.95 2.20 2.35 2.51 2.52 2.39 2.26 2.22 2.21 2.17 2.07 2.04 2.07 2.10 2.22 2.38 2.52 2.59 2.86 3.15 3.36 3.32 3.08 2.77 2.58 2.13 2.14 2.22 1.97 1.69 1.44
0.57 0.67 0.81 0.94 1.01 1.11 1.33 1.57 1.73 1.88 1.87 1.85 1.87 2.00 2.20 2.38 2.40 2.40 2.37 2.29 2.23 2.15 2.02 1.94 1.99 1.99 1.98 2.11 2.24 2.38 2.66 2.89 3.06 3.15 3.06 2.96 2.89 2.58 2.28 2.08 2.04 1.90 1.65
0.65 0.88 1.07 1.21 1.30 1.41 1.53 1.59 1.57 1.66 1.70 1.68 1.70 1.75 1.82 1.86 1.91 2.03 1.97 1.87 1.78 1.72 1.69 1.61 1.63 1.73 1.79 1.95 2.02 1.99 2.08 2.30 2.54 2.74 2.82 2.86 2.77 2.69 2.60 2.43 2.18 1.91 1.57
0.93 1.07 1.19 1.30 1.35 1.48 1.54 1.51 1.46 1.45 1.40 1.37 1.43 1.47 1.49 1.55 1.54 1.52 1.50 1.43 1.38 1.37 1.34 1.33 1.33 1.39 1.45 1.63 1.84 1.86 1.89 1.97 2.09 2.17 2.47 2.67 2.64 2.67 2.46 2.35 2.37 2.10 1.75
1.20 1.38 1.38 1.29 1.25 1.31 1.39 1.36 1.30 1.25 1.16 1.11 1.17 1.23 1.33 1.33 1.26 1.20 1.14 1.15 1.08 1.11 1.09 1.13 1.22 1.29 1.28 1.37 1.49 1.68 1.74 1.82 1.91 1.91 2.10 2.29 2.38 2.40 2.24 2.26 2.36 2.27 1.96
1.30 1.57 1.67 1.55 1.32 1.16 1.19 1.16 1.15 1.20 1.19 1.16 1.16 1.15 1.09 1.02 0.98 0.98 0.90 0.89 0.96 0.99 1.00 0.99 1.04 1.12 1.16 1.26 1.37 1.40 1.50 1.59 1.76 1.93 2.05 2.11 2.15 2.23 2.16 2.15 2.26 2.26 2.09
1.51 1.64 1.67 1.54 1.39 1.12 1.05 1.04 1.04 1.11 1.19 1.12 1.14 1.13 1.02 0.89 0.84 0.78 0.72 0.74 0.81 0.85 0.86 0.89 0.99 1.01 1.04 1.10 1.11 1.14 1.20 1.27 1.38 1.44 1.58 1.81 2.01 2.12 2.14 2.20 2.26 2.28 2.14
1.21 1.23 1.33 1.36 1.27 1.13 1.06 1.13 1.17 1.20 1.16 1.11 1.09 1.05 0.98 0.89 0.87 0.79 0.69 0.73 0.79 0.80 0.82 0.89 0.94 0.94 1.00 1.03 1.01 1.03 1.09 1.20 1.28 1.30 1.33 1.45 1.71 1.88 2.02 2.13 2.17 2.22 2.18
0.94 0.90 1.01 1.17 1.11 1.04 1.07 1.17 1.31 1.33 1.27 1.16 1.08 1.07 1.02 0.99 1.01 0.88 0.78 0.78 0.85 0.96 1.00 0.99 1.02 0.97 0.98 1.00 0.99 1.04 1.09 1.10 1.15 1.19 1.20 1.31 1.43 1.58 1.69 1.82 1.95 2.02 2.14
0.79 0.76 0.72 0.78 0.81 0.84 0.85 0.97 1.23 1.46 1.45 1.32 1.19 1.14 1.15 1.18 1.15 0.99 0.92 0.83 0.83 0.86 0.89 0.96 1.03 1.10 1.14 1.11 1.07 1.11 1.13 1.08 1.08 1.13 1.20 1.23 1.26 1.45 1.67 1.78 1.89 1.94 2.05
0.61 0.57 0.54 0.54 0.55 0.59 0.67 0.81 1.12 1.35 1.36 1.32 1.16 1.07 1.05 1.05 1.01 1.02 1.06 0.97 0.85 0.78 0.76 0.84 0.93 1.03 1.12 1.16 1.16 1.04 0.98 1.00 1.06 1.05 1.03 1.10 1.22 1.36 1.57 1.66 1.89 1.93 2.07
0.55 0.55 0.50 0.46 0.43 0.43 0.49 0.60 0.80 1.01 1.10 1.12 1.05 0.94 0.96 0.93 0.86 0.90 1.01 1.05 0.92 0.85 0.79 0.77 0.76 0.79 0.84 1.05 1.06 0.94 0.82 0.87 1.00 1.07 1.05 1.04 1.11 1.19 1.29 1.33 1.58 1.78 1.92
0.54 0.56 0.55 0.50 0.49 0.47 0.48 0.49 0.57 0.72 0.82 0.85 0.82 0.73 0.76 0.90 0.94 0.98 0.98 0.90 0.83 0.85 0.84 0.75 0.67 0.67 0.74 0.82 0.80 0.86 0.83 0.84 0.91 1.00 1.07 1.11 1.08 1.16 1.24 1.27 1.38 1.49 1.55
0.54 0.53 0.51 0.45 0.45 0.47 0.48 0.52 0.52 0.56 0.60 0.59 0.58 0.54 0.63 0.80 0.85 0.81 0.79 0.74 0.73 0.77 0.83 0.75 0.70 0.74 0.75 0.78 0.80 0.84 0.81 0.91 0.99 0.99 0.98 1.11 1.16 1.21 1.37 1.36 1.43 1.38 1.32
0.32 0.34 0.37 0.34 0.31 0.34 0.38 0.40 0.38 0.42 0.43 0.42 0.44 0.52 0.56 0.59 0.60 0.58 0.59 0.65 0.71 0.72 0.67 0.70 0.84 0.84 0.86 0.97 0.88 0.79 0.79 0.91 0.98 0.93 0.96 1.08 1.16 1.37 1.50 1.49 1.48 1.38 1.31
0.17 0.24 0.34 0.36 0.31 0.31 0.36 0.37 0.37 0.39 0.39 0.41 0.46 0.50 0.54 0.58 0.57 0.58 0.59 0.62 0.66 0.71 0.73 0.75 0.87 0.91 0.93 0.98 0.86 0.82 0.86 0.94 1.01 0.99 0.97 1.19 1.18 1.32 1.39 1.43 1.54 1.52 1.39
0.18 0.22 0.28 0.35 0.34 0.34 0.35 0.35 0.37 0.40 0.46 0.49 0.47 0.49 0.52 0.57 0.62 0.65 0.64 0.64 0.65 0.69 0.74 0.77 0.80 0.78 0.74 0.75 0.77 0.82 0.82 0.89 0.96 0.94 0.93 0.89 1.07 1.12 1.23 1.34 1.41 1.67 1.59
0.16 0.20 0.24 0.33 0.36 0.38 0.38 0.41 0.41 0.41 0.48 0.51 0.49 0.50 0.54 0.56 0.61 0.71 0.73 0.72 0.72 0.71 0.72 0.76 0.81 0.81 0.75 0.71 0.70 0.77 0.84 0.92 0.87 0.80 0.84 0.85 1.00 1.04 1.10 1.11 1.31 1.56 1.57
0.17 0.20 0.23 0.30 0.36 0.39 0.44 0.46 0.45 0.45 0.46 0.48 0.52 0.55 0.57 0.56 0.57 0.62 0.68 0.71 0.74 0.76 0.76 0.76 0.80 0.78 0.77 0.78 0.80 0.81 0.86 0.87 0.77 0.68 0.83 0.91 1.00 0.99 0.93 1.08 1.31 1.36 1.38
0.12 0.16 0.18 0.24 0.32 0.38 0.41 0.48 0.50 0.49 0.51 0.53 0.58 0.61 0.63 0.63 0.62 0.64 0.68 0.71 0.73 0.75 0.73 0.73 0.79 0.82 0.81 0.78 0.75 0.75 0.77 0.75 0.72 0.72 0.89 1.06 1.11 1.05 0.99 1.05 1.17 1.19 1.31
0.16 0.15 0.16 0.20 0.26 0.33 0.38 0.45 0.51 0.56 0.56 0.56 0.62 0.68 0.69 0.69 0.69 0.69 0.70 0.69 0.68 0.73 0.73 0.72 0.76 0.78 0.76 0.79 0.85 0.81 0.78 0.76 0.77 0.86 1.00 1.14 1.17 1.20 1.13 1.11 1.18 1.15 1.13
0.18 0.18 0.18 0.18 0.21 0.26 0.30 0.37 0.41 0.50 0.58 0.62 0.62 0.62 0.69 0.71 0.69 0.68 0.68 0.70 0.70 0.75 0.73 0.71 0.73 0.74 0.75 0.81 0.84 0.87 0.89 0.86 0.96 1.09 1.20 1.29 1.36 1.38 1.35 1.31 1.26 1.17 1.13